Home > Weather > Hoshiarpur > Past weeks

Flag for India Past Weather in Hoshiarpur, Punjab, India — Yesterday and Last 2 Weeks

Now
84 °F

Haze.


Feels Like: 86 °F
Forecast: 76 / 97 °F
Wind: 10 mph from East

Location: Amritsar Airport

Current Time: May 29, 2016 at 9:30:02 AM

Latest Report: May 29, 2016 at 9:00 AM


Visibility: 4 mi

Pressure: 29.59 "Hg

Humidity: 51%

Dew Point: 64 °F

Location of HoshiarpurLocation

Past Weather in Hoshiarpur — Graph

°F

Hoshiarpur Temperature Yesterday

Maximum temperature yesterday: 104 °F (at 2:00 PM)
Minimum temperature yesterday: 79 °F (at 4:30 AM)
Average temperature yesterday: 91 °F

High & Low Weather Summary for the Past Weeks

 TemperatureHumidityPressure
High111 °F (May 18, 3:30 PM)100% (May 24, 4:00 AM)29.77 "Hg (May 24, 4:00 AM)
Low68 °F (May 24, 4:00 AM)9% (May 15, 12:00 PM)29.36 "Hg (May 21, 5:00 PM)
Average91 °F36%29.53 "Hg
* Reported May 14 8:30 AM — May 29 8:30 AM, Hoshiarpur, Weather by CustomWeather, © 2016

Note: Actual official high and low records may vary slightly from our data, if they occured in-between our weather recording intervals... More about our weather records

Advertising

Hoshiarpur Weather History for the Previous 24 Hours

Scroll right to see more
 ConditionsComfort  
Time TempWeatherWind HumidityBarometerVisibility
8:30 AM
Sun, May 29
82 °FHaze.9 mph55%29.59 "Hg4 mi
8:00 AM81 °FHaze.9 mph54%29.56 "Hg3 mi
7:30 AM79 °FHaze.7 mph61%29.56 "Hg3 mi
7:00 AM77 °FHaze.7 mph61%29.53 "Hg3 mi
6:30 AM75 °FHaze.7 mph65%29.53 "Hg2 mi
6:00 AM75 °FHaze.6 mph65%29.53 "Hg2 mi
5:30 AM75 °FPassing clouds.5 mph65%29.53 "Hg2 mi
5:00 AM75 °FPassing clouds.6 mph65%29.50 "Hg2 mi
4:30 AM77 °FPassing clouds.5 mph57%29.50 "Hg2 mi
4:00 AM77 °FPassing clouds.2 mph57%29.47 "Hg2 mi
3:30 AM79 °FPassing clouds.2 mph54%29.47 "Hg2 mi
3:00 AM79 °FPassing clouds.No wind51%29.47 "Hg2 mi
2:30 AM81 °FThundershowers. Partly cloudy.2 mph48%29.47 "Hg2 mi
2:00 AM81 °FThundershowers. Partly cloudy.2 mph48%29.50 "Hg2 mi
1:30 AM81 °FThundershowers. Partly cloudy.9 mph48%29.50 "Hg2 mi
1:00 AM82 °FThundershowers. Partly cloudy.2 mph42%29.47 "Hg2 mi
12:30 AM81 °FThundershowers. Partly cloudy.No wind45%29.50 "Hg2 mi
12:00 AM81 °FThundershowers. Partly cloudy.2 mph48%29.50 "Hg2 mi
11:30 PM
Sat, May 28
84 °FThundershowers. Partly cloudy.6 mph40%29.50 "Hg2 mi
11:00 PM84 °FThundershowers. Partly cloudy.8 mph40%29.53 "Hg2 mi
10:30 PM82 °FThundershowers. Partly cloudy.9 mph42%29.53 "Hg2 mi
10:00 PM82 °FThundershowers. Partly cloudy.12 mph42%29.50 "Hg2 mi
9:00 PM81 °FThundershowers. Partly cloudy.10 mph54%29.53 "Hg1 mi
8:30 PM79 °FThundershowers. Partly cloudy.14 mph58%29.53 "Hg1 mi
8:00 PM84 °FPartly cloudy.18 mph43%29.53 "Hg1 mi
7:00 PM99 °FScattered clouds.6 mph35%29.45 "Hg2 mi
6:30 PM100 °FScattered clouds.9 mph33%29.45 "Hg2 mi
6:00 PM102 °FScattered clouds.10 mph31%29.45 "Hg2 mi
5:30 PM102 °FScattered clouds.9 mph31%29.45 "Hg2 mi
5:00 PM104 °FScattered clouds.9 mph28%29.45 "Hg2 mi
4:30 PM104 °FScattered clouds.10 mph26%29.45 "Hg2 mi
4:00 PM104 °FScattered clouds.8 mph26%29.47 "Hg2 mi
3:30 PM104 °FScattered clouds.7 mph24%29.47 "Hg2 mi
3:00 PM104 °FScattered clouds.7 mph26%29.50 "Hg2 mi
2:30 PM104 °FScattered clouds.9 mph26%29.50 "Hg2 mi
2:00 PM104 °FScattered clouds.9 mph26%29.53 "Hg1 mi
1:30 PM102 °FScattered clouds.10 mph26%29.53 "Hg1 mi
1:00 PM102 °FScattered clouds.7 mph26%29.53 "Hg1 mi
12:30 PM102 °FScattered clouds.5 mph26%29.56 "Hg1 mi
12:00 PM102 °FDuststorm.3 mph27%29.56 "Hg1 mi
11:30 AM100 °FDuststorm.No wind27%29.56 "Hg1 mi
11:00 AM100 °FDuststorm.No wind29%29.56 "Hg1 mi
10:30 AM99 °FDuststorm.No wind31%29.56 "Hg1 mi
10:00 AM97 °FDuststorm.No wind32%29.56 "Hg2 mi
9:30 AM95 °FDuststorm.2 mph34%29.56 "Hg2 mi
Weather by CustomWeather, © 2016

See weather overviewHow to use our weather pages